Time,TemperatureF,DewpointF,PressureIn,WindDirection,WindDirectionDegrees,WindSpeedMPH,WindSpeedGustMPH,Humidity,HourlyPrecipIn,Conditions,Clouds,dailyrainin,SoftwareType,DateUTC
2013-07-29 12:33:00,92.4,65.9,30.39,NW,315,0.0,0.0,42,0.00,,,0.00,WUHU216HW,2013-07-29 16:33:00,
2013-07-29 12:38:00,92.8,67.0,30.39,NW,315,0.0,0.0,43,0.14,,,0.15,WUHU216HW,2013-07-29 16:38:00,
2013-07-29 12:43:00,93.3,66.1,30.39,West,270,0.0,0.0,41,0.14,,,0.15,WUHU216HW,2013-07-29 16:43:00,
2013-07-29 12:48:00,92.8,64.9,30.39,NW,315,0.0,0.0,40,0.14,,,0.15,WUHU216HW,2013-07-29 16:48:00,
2013-07-29 12:53:00,92.3,65.1,30.39,WNW,293,0.0,0.0,41,0.14,,,0.15,WUHU216HW,2013-07-29 16:53:00,
2013-07-29 12:58:00,92.6,65.4,30.39,NNW,338,0.0,0.0,41,0.14,,,0.15,WUHU216HW,2013-07-29 16:58:00,
2013-07-29 13:03:00,92.8,64.9,30.39,NNW,338,1.3,1.5,40,0.14,,,0.15,WUHU216HW,2013-07-29 17:03:00,
2013-07-29 13:08:00,92.8,64.9,30.39,NW,315,0.0,1.5,40,0.14,,,0.15,WUHU216HW,2013-07-29 17:08:00,
2013-07-29 13:13:00,92.8,64.1,30.39,North,0,0.0,0.0,39,0.14,,,0.15,WUHU216HW,2013-07-29 17:13:00,
2013-07-29 13:18:00,92.4,63.0,30.39,East,90,0.0,0.0,38,0.14,,,0.15,WUHU216HW,2013-07-29 17:18:00,
2013-07-29 13:23:00,91.9,61.7,30.38,SE,135,5.5,5.5,37,0.14,,,0.15,WUHU216HW,2013-07-29 17:23:00,
2013-07-29 13:29:00,91.5,63.8,30.39,SE,135,0.0,5.5,40,0.14,,,0.15,WUHU216HW,2013-07-29 17:29:00,
2013-07-29 13:34:00,91.7,64.0,30.38,North,0,0.0,5.5,40,0.14,,,0.15,WUHU216HW,2013-07-29 17:34:00,
2013-07-29 13:39:00,91.7,64.1,30.38,SE,135,0.0,0.0,40,0.00,,,0.15,WUHU216HW,2013-07-29 17:39:00,
2013-07-29 13:44:00,91.9,64.1,30.39,ENE,68,0.0,0.0,40,0.00,,,0.15,WUHU216HW,2013-07-29 17:44:00,
2013-07-29 13:49:00,91.9,64.1,30.39,South,180,0.0,0.0,40,0.00,,,0.15,WUHU216HW,2013-07-29 17:49:00,
2013-07-29 13:54:00,91.7,63.8,30.39,WSW,248,0.0,0.0,40,0.00,,,0.15,WUHU216HW,2013-07-29 17:54:00,
2013-07-29 13:59:00,91.4,64.3,30.39,NW,315,0.0,0.0,41,0.00,,,0.15,WUHU216HW,2013-07-29 17:59:00,
2013-07-29 14:04:00,91.2,64.1,30.39,East,90,0.0,0.0,41,0.00,,,0.15,WUHU216HW,2013-07-29 18:04:00,
2013-07-29 14:09:00,91.4,64.1,30.39,ESE,113,0.0,1.7,41,0.00,,,0.15,WUHU216HW,2013-07-29 18:09:00,
2013-07-29 14:14:00,90.1,63.8,30.39,ENE,68,0.0,1.7,42,0.00,,,0.15,WUHU216HW,2013-07-29 18:14:00,
2013-07-29 14:19:00,89.9,63.0,30.39,North,0,5.8,5.8,41,0.00,,,0.15,WUHU216HW,2013-07-29 18:19:00,
2013-07-29 14:24:00,89.6,63.5,30.39,NNW,338,0.0,5.8,42,0.00,,,0.15,WUHU216HW,2013-07-29 18:24:00,
2013-07-29 14:29:00,89.9,63.0,30.39,SE,135,4.9,4.9,41,0.00,,,0.15,WUHU216HW,2013-07-29 18:29:00,
2013-07-29 14:34:00,89.9,63.0,30.39,SE,135,5.8,5.8,41,0.00,,,0.15,WUHU216HW,2013-07-29 18:34:00,
2013-07-29 14:40:00,89.7,63.5,30.39,SE,135,0.0,5.8,42,0.00,,,0.15,WUHU216HW,2013-07-29 18:40:00,
2013-07-29 14:45:00,89.7,63.5,30.39,WNW,293,0.0,5.8,42,0.00,,,0.15,WUHU216HW,2013-07-29 18:45:00,
2013-07-29 14:50:00,89.4,63.1,30.39,ESE,113,0.0,4.0,42,0.00,,,0.15,WUHU216HW,2013-07-29 18:50:00,
2013-07-29 14:55:00,89.0,63.5,30.39,NW,315,0.0,4.0,43,0.00,,,0.15,WUHU216HW,2013-07-29 18:55:00,
2013-07-29 15:00:00,88.7,63.2,30.39,SSE,158,0.0,0.0,43,0.00,,,0.15,WUHU216HW,2013-07-29 19:00:00,
2013-07-29 15:05:00,88.1,63.4,30.39,NE,45,2.4,2.4,44,0.00,,,0.15,WUHU216HW,2013-07-29 19:05:00,
2013-07-29 15:10:00,88.3,63.5,30.38,ENE,68,2.9,2.9,44,0.00,,,0.15,WUHU216HW,2013-07-29 19:10:00,
2013-07-29 15:15:00,88.3,63.5,30.38,NW,315,0.0,2.9,44,0.00,,,0.15,WUHU216HW,2013-07-29 19:15:00,
2013-07-29 15:20:00,87.9,62.6,30.38,NE,45,6.2,6.2,43,0.00,,,0.15,WUHU216HW,2013-07-29 19:20:00,
2013-07-29 15:25:00,87.4,62.8,30.38,NW,315,4.0,6.2,44,0.00,,,0.15,WUHU216HW,2013-07-29 19:25:00,
2013-07-29 15:30:00,86.7,62.1,30.38,ENE,68,2.0,4.0,44,0.00,,,0.15,WUHU216HW,2013-07-29 19:30:00,
2013-07-29 15:35:00,86.1,62.3,30.39,SE,135,0.0,4.0,45,0.00,,,0.15,WUHU216HW,2013-07-29 19:35:00,
2013-07-29 15:40:00,85.8,62.1,30.38,NE,45,0.0,2.0,45,0.00,,,0.15,WUHU216HW,2013-07-29 19:40:00,
2013-07-29 15:45:00,85.8,61.3,30.38,NE,45,0.0,0.8,44,0.00,,,0.15,WUHU216HW,2013-07-29 19:45:00,
2013-07-29 15:50:00,85.8,61.9,30.38,NNW,338,0.0,0.0,45,0.00,,,0.15,WUHU216HW,2013-07-29 19:50:00,
2013-07-29 15:55:00,86.0,61.5,30.38,NW,315,0.0,0.0,44,0.00,,,0.15,WUHU216HW,2013-07-29 19:55:00,
2013-07-29 16:00:00,86.5,60.7,30.38,North,0,0.0,0.0,42,0.00,,,0.15,WUHU216HW,2013-07-29 20:00:00,
2013-07-29 16:06:00,86.7,60.9,30.38,NE,45,0.0,0.0,42,0.00,,,0.15,WUHU216HW,2013-07-29 20:06:00,
2013-07-29 16:11:00,86.5,60.7,30.38,WSW,248,0.0,4.4,42,0.00,,,0.15,WUHU216HW,2013-07-29 20:11:00,
2013-07-29 16:16:00,86.5,60.7,30.38,North,0,0.0,4.4,42,0.00,,,0.15,WUHU216HW,2013-07-29 20:16:00,
2013-07-29 16:22:00,86.5,60.7,30.38,NW,315,0.0,0.0,42,0.00,,,0.15,WUHU216HW,2013-07-29 20:22:00,
2013-07-29 16:27:00,86.1,60.4,30.38,NW,315,0.0,0.0,42,0.00,,,0.15,WUHU216HW,2013-07-29 20:27:00,
2013-07-29 16:32:00,86.5,60.7,30.38,NW,315,4.4,4.4,42,0.00,,,0.15,WUHU216HW,2013-07-29 20:32:00,
2013-07-29 16:37:00,87.0,60.6,30.38,WNW,293,0.0,5.5,41,0.00,,,0.15,WUHU216HW,2013-07-29 20:37:00,
2013-07-29 16:42:00,86.9,61.2,30.38,NW,315,0.0,5.5,41,0.00,,,0.15,WUHU216HW,2013-07-29 20:42:00,
2013-07-29 16:47:00,86.7,60.2,30.38,NW,315,0.0,3.5,41,0.00,,,0.15,WUHU216HW,2013-07-29 20:47:00,
2013-07-29 16:52:00,86.5,60.7,30.38,NW,315,0.0,0.0,42,0.00,,,0.15,WUHU216HW,2013-07-29 20:52:00,
2013-07-29 16:57:00,85.8,60.5,30.38,NE,45,0.0,0.8,42,0.00,,,0.15,WUHU216HW,2013-07-29 20:57:00,
2013-07-29 17:02:00,85.8,60.0,30.38,NNE,23,0.0,0.8,42,0.00,,,0.15,WUHU216HW,2013-07-29 21:02:00,
2013-07-29 17:08:00,85.8,60.0,30.38,WSW,248,0.0,0.0,42,0.00,,,0.15,WUHU216HW,2013-07-29 21:08:00,
2013-07-29 17:13:00,85.8,59.4,30.38,WSW,248,0.0,0.0,41,0.00,,,0.15,WUHU216HW,2013-07-29 21:13:00,
2013-07-29 17:18:00,85.8,59.4,30.38,NW,315,6.0,6.0,41,0.00,,,0.15,WUHU216HW,2013-07-29 21:18:00,
2013-07-29 17:23:00,85.8,59.4,30.39,NNE,23,0.0,6.0,41,0.00,,,0.15,WUHU216HW,2013-07-29 21:23:00,
2013-07-29 17:28:00,85.6,57.8,30.39,West,270,0.0,5.8,39,0.00,,,0.15,WUHU216HW,2013-07-29 21:28:00,
2013-07-29 17:34:00,85.8,58.0,30.38,NW,315,6.9,9.6,39,0.00,,,0.15,WUHU216HW,2013-07-29 21:34:00,
2013-07-29 17:39:00,85.8,57.2,30.38,NNW,338,0.0,9.6,38,0.00,,,0.15,WUHU216HW,2013-07-29 21:39:00,
2013-07-29 17:44:00,86.0,57.4,30.38,NE,45,0.0,3.5,38,0.00,,,0.15,WUHU216HW,2013-07-29 21:44:00,
2013-07-29 17:49:00,85.8,55.6,30.38,NNW,338,0.0,7.3,36,0.00,,,0.15,WUHU216HW,2013-07-29 21:49:00,
2013-07-29 17:54:00,85.8,55.6,30.39,NNW,338,0.0,7.3,36,0.00,,,0.15,WUHU216HW,2013-07-29 21:54:00,
2013-07-29 17:59:00,85.2,53.6,30.39,NNW,338,0.0,6.2,34,0.00,,,0.15,WUHU216HW,2013-07-29 21:59:00,
2013-07-29 18:04:00,85.1,53.4,30.39,NW,315,0.0,2.9,34,0.00,,,0.15,WUHU216HW,2013-07-29 22:04:00,
2013-07-29 18:09:00,84.9,50.9,30.39,NNE,23,0.0,2.9,31,0.00,,,0.15,WUHU216HW,2013-07-29 22:09:00,
2013-07-29 18:14:00,84.3,51.2,30.39,NW,315,3.5,3.5,32,0.00,,,0.15,WUHU216HW,2013-07-29 22:14:00,
2013-07-29 18:20:00,84.3,51.2,30.39,NW,315,0.0,3.5,32,0.00,,,0.15,WUHU216HW,2013-07-29 22:20:00,
2013-07-29 18:25:00,84.0,48.2,30.39,ENE,68,0.0,0.0,29,0.00,,,0.15,WUHU216HW,2013-07-29 22:25:00,
2013-07-29 18:30:00,84.0,47.1,30.40,SSW,203,0.0,7.1,28,0.00,,,0.15,WUHU216HW,2013-07-29 22:30:00,
2013-07-29 18:35:00,83.8,47.0,30.40,SSE,158,0.0,7.1,28,0.00,,,0.15,WUHU216HW,2013-07-29 22:35:00,
2013-07-29 18:40:00,83.8,47.0,30.40,NNE,23,0.0,0.0,28,0.00,,,0.15,WUHU216HW,2013-07-29 22:40:00,
2013-07-29 18:45:00,83.8,48.0,30.40,NW,315,0.0,0.0,29,0.00,,,0.15,WUHU216HW,2013-07-29 22:45:00,
2013-07-29 18:50:00,84.0,49.2,30.40,NW,315,0.0,0.0,30,0.00,,,0.15,WUHU216HW,2013-07-29 22:50:00,
2013-07-29 18:55:00,84.0,49.2,30.40,NNW,338,0.0,0.0,30,0.00,,,0.15,WUHU216HW,2013-07-29 22:55:00,
2013-07-29 19:00:00,83.8,49.9,30.40,WNW,293,6.0,6.0,31,0.00,,,0.15,WUHU216HW,2013-07-29 23:00:00,
2013-07-29 19:05:00,83.6,49.7,30.40,NW,315,6.2,6.2,31,0.00,,,0.15,WUHU216HW,2013-07-29 23:05:00,
2013-07-29 19:10:00,83.3,49.4,30.40,NW,315,7.8,7.8,31,0.00,,,0.15,WUHU216HW,2013-07-29 23:10:00,
2013-07-29 19:15:00,82.9,49.1,30.40,NNW,338,0.0,7.8,31,0.00,,,0.15,WUHU216HW,2013-07-29 23:15:00,
2013-07-29 19:20:00,82.7,50.5,30.41,NW,315,3.3,7.8,33,0.00,,,0.15,WUHU216HW,2013-07-29 23:20:00,
2013-07-29 19:25:00,82.5,51.1,30.41,NE,45,0.0,3.3,34,0.00,,,0.15,WUHU216HW,2013-07-29 23:25:00,
2013-07-29 19:30:00,82.2,50.8,30.41,NW,315,0.0,0.0,34,0.00,,,0.15,WUHU216HW,2013-07-29 23:30:00,
2013-07-29 19:35:00,82.0,50.7,30.41,NW,315,0.0,0.0,34,0.00,,,0.15,WUHU216HW,2013-07-29 23:35:00,
2013-07-29 19:40:00,81.6,51.1,30.42,NNW,338,0.0,6.7,35,0.00,,,0.15,WUHU216HW,2013-07-29 23:40:00,
2013-07-29 19:47:00,81.5,51.0,30.42,NNW,338,0.0,6.7,35,0.00,,,0.15,WUHU216HW,2013-07-29 23:47:00,
2013-07-29 19:52:00,81.1,51.4,30.42,NNW,338,2.9,5.1,36,0.00,,,0.15,WUHU216HW,2013-07-29 23:52:00,
2013-07-29 19:57:00,80.7,51.1,30.42,WNW,293,0.0,5.1,36,0.00,,,0.15,WUHU216HW,2013-07-29 23:57:00,
2013-07-29 20:02:00,80.7,51.1,30.42,NE,45,0.0,2.9,36,0.00,,,0.15,WUHU216HW,2013-07-30 00:02:00,
2013-07-29 20:07:00,80.4,51.6,30.43,NW,315,5.8,5.8,37,0.00,,,0.15,WUHU216HW,2013-07-30 00:07:00,
2013-07-29 20:12:00,80.2,51.4,30.42,NW,315,0.0,5.8,37,0.00,,,0.15,WUHU216HW,2013-07-30 00:12:00,
2013-07-29 20:17:00,80.0,51.3,30.43,NW,315,0.0,5.8,37,0.00,,,0.15,WUHU216HW,2013-07-30 00:17:00,
2013-07-29 20:22:00,79.7,51.0,30.43,NNW,338,6.9,6.9,37,0.00,,,0.15,WUHU216HW,2013-07-30 00:22:00,
2013-07-29 20:27:00,79.5,51.6,30.43,NNW,338,0.0,6.9,38,0.00,,,0.15,WUHU216HW,2013-07-30 00:27:00,
2013-07-29 20:32:00,79.3,51.4,30.44,WSW,248,0.0,6.9,38,0.00,,,0.15,WUHU216HW,2013-07-30 00:32:00,
2013-07-29 20:37:00,79.1,52.0,30.43,West,270,0.0,2.0,39,0.00,,,0.15,WUHU216HW,2013-07-30 00:37:00,
2013-07-29 20:42:00,78.9,51.1,30.44,West,270,0.0,0.0,38,0.00,,,0.15,WUHU216HW,2013-07-30 00:42:00,
2013-07-29 20:47:00,78.9,51.9,30.43,NW,315,3.3,3.3,39,0.00,,,0.15,WUHU216HW,2013-07-30 00:47:00,
2013-07-29 20:52:00,78.6,51.5,30.44,North,0,0.0,3.3,39,0.00,,,0.15,WUHU216HW,2013-07-30 00:52:00,
2013-07-29 20:57:00,78.6,51.5,30.44,NW,315,0.0,3.3,39,0.00,,,0.15,WUHU216HW,2013-07-30 00:57:00,
2013-07-29 21:02:00,78.6,51.5,30.44,NNW,338,0.0,0.0,39,0.00,,,0.15,WUHU216HW,2013-07-30 01:02:00,
2013-07-29 21:07:00,78.4,52.1,30.45,NNW,338,0.0,0.0,40,0.00,,,0.15,WUHU216HW,2013-07-30 01:07:00,
2013-07-29 21:12:00,78.4,52.1,30.45,NW,315,0.0,0.0,40,0.00,,,0.15,WUHU216HW,2013-07-30 01:12:00,
2013-07-29 21:17:00,78.0,51.8,30.45,NW,315,0.0,1.5,40,0.00,,,0.15,WUHU216HW,2013-07-30 01:17:00,
2013-07-29 21:22:00,78.0,51.8,30.45,NW,315,0.0,1.5,40,0.00,,,0.15,WUHU216HW,2013-07-30 01:22:00,
2013-07-29 21:28:00,78.0,51.8,30.45,West,270,0.0,0.0,40,0.00,,,0.15,WUHU216HW,2013-07-30 01:28:00,
2013-07-29 21:33:00,77.9,52.3,30.45,NE,45,0.0,0.0,41,0.00,,,0.15,WUHU216HW,2013-07-30 01:33:00,
2013-07-29 21:38:00,77.7,52.1,30.46,NW,315,0.0,6.0,41,0.00,,,0.15,WUHU216HW,2013-07-30 01:38:00,
2013-07-29 21:44:00,77.7,52.7,30.46,NW,315,0.0,6.0,42,0.00,,,0.15,WUHU216HW,2013-07-30 01:44:00,
2013-07-29 21:49:00,77.5,52.6,30.46,West,270,0.0,0.0,42,0.00,,,0.15,WUHU216HW,2013-07-30 01:49:00,
2013-07-29 21:54:00,77.3,52.4,30.46,NW,315,0.0,0.0,42,0.00,,,0.15,WUHU216HW,2013-07-30 01:54:00,
2013-07-29 21:59:00,77.1,52.2,30.46,NW,315,5.3,6.9,42,0.00,,,0.15,WUHU216HW,2013-07-30 01:59:00,
2013-07-29 22:04:00,77.1,52.2,30.46,NW,315,0.0,6.9,42,0.00,,,0.15,WUHU216HW,2013-07-30 02:04:00,
2013-07-29 22:09:00,76.8,51.9,30.46,NW,315,0.0,3.8,42,0.00,,,0.15,WUHU216HW,2013-07-30 02:09:00,
2013-07-29 22:14:00,76.8,51.9,30.46,NW,315,0.0,4.4,42,0.00,,,0.15,WUHU216HW,2013-07-30 02:14:00,
2013-07-29 22:19:00,76.8,52.5,30.47,NW,315,0.8,4.4,43,0.00,,,0.15,WUHU216HW,2013-07-30 02:19:00,
2013-07-29 22:24:00,76.6,52.4,30.47,NW,315,0.0,0.8,43,0.00,,,0.15,WUHU216HW,2013-07-30 02:24:00,
2013-07-29 22:29:00,76.2,51.4,30.47,NW,315,4.2,4.2,42,0.00,,,0.15,WUHU216HW,2013-07-30 02:29:00,
2013-07-29 22:35:00,76.2,51.4,30.47,WNW,293,8.2,8.2,42,0.00,,,0.15,WUHU216HW,2013-07-30 02:35:00,
2013-07-29 22:40:00,76.2,50.8,30.47,NNW,338,5.5,8.2,41,0.00,,,0.15,WUHU216HW,2013-07-30 02:40:00,
2013-07-29 22:45:00,76.1,50.7,30.47,NNW,338,0.0,8.2,41,0.00,,,0.15,WUHU216HW,2013-07-30 02:45:00,
2013-07-29 22:50:00,76.1,50.0,30.47,NW,315,1.1,7.1,40,0.00,,,0.15,WUHU216HW,2013-07-30 02:50:00,
2013-07-29 22:55:00,75.9,50.5,30.47,NW,315,7.6,7.6,41,0.00,,,0.15,WUHU216HW,2013-07-30 02:55:00,
2013-07-29 23:00:00,75.9,50.5,30.47,NW,315,0.0,7.6,41,0.00,,,0.15,WUHU216HW,2013-07-30 03:00:00,
2013-07-29 23:05:00,75.7,50.3,30.47,NW,315,0.0,7.6,41,0.00,,,0.15,WUHU216HW,2013-07-30 03:05:00,
2013-07-29 23:10:00,75.7,50.3,30.47,NW,315,0.0,6.4,41,0.00,,,0.15,WUHU216HW,2013-07-30 03:10:00,
2013-07-29 23:16:00,75.5,50.8,30.47,NNW,338,0.0,6.4,42,0.00,,,0.15,WUHU216HW,2013-07-30 03:16:00,
2013-07-29 23:21:00,75.3,50.0,30.47,NNW,338,3.1,3.5,41,0.00,,,0.15,WUHU216HW,2013-07-30 03:21:00,
2013-07-29 23:26:00,75.3,50.6,30.47,WNW,293,0.0,3.5,42,0.00,,,0.15,WUHU216HW,2013-07-30 03:26:00,
2013-07-29 23:31:00,75.3,50.6,30.48,NW,315,1.3,3.1,42,0.00,,,0.15,WUHU216HW,2013-07-30 03:31:00,
2013-07-29 23:36:00,75.0,50.3,30.47,NNW,338,0.0,2.9,42,0.00,,,0.15,WUHU216HW,2013-07-30 03:36:00,
2013-07-29 23:42:00,75.0,50.9,30.48,NW,315,0.0,0.0,43,0.00,,,0.15,WUHU216HW,2013-07-30 03:42:00,
2013-07-29 23:47:00,74.8,50.7,30.48,NNW,338,0.0,0.0,43,0.00,,,0.15,WUHU216HW,2013-07-30 03:47:00,
2013-07-29 23:52:00,74.8,50.7,30.48,NW,315,0.0,0.0,43,0.00,,,0.15,WUHU216HW,2013-07-30 03:52:00,
2013-07-29 23:57:00,74.6,50.6,30.48,NW,315,0.0,0.0,43,0.00,,,0.00,WUHU216HW,2013-07-30 03:57:00,